Regional Weather Roundup
Issued by NWS

Home | Current Version | Previous Version | Text Only | Print | Product List | Glossary Off
Versions: 1 2 3 4 5 6 7 8 9 10 11 12 13 14 15 16 17 18 19 20 21 22 23 24 25 26 27 28 29 30 31 32 33 34 35 36 37 38 39 40 41 42 43 44 45 46 47 48 49 50

000
ASUS45 KBOU 200307
RWRCO

WEATHER ROUNDUP FOR COLORADO
NATIONAL WEATHER SERVICE DENVER/BOULDER CO
900 PM MDT SAT AUG 19 2017

NOTE: "FAIR" INDICATES FEW OR NO CLOUDS BELOW 12000 FEET WITH NO
SIGNIFICANT WEATHER AND/OR OBSTRUCTIONS TO VISIBILITY.

COZ001>005-013-030-031-200400-
...NORTHWEST COLORADO...

CITY           SKY/WX    TMP DP  RH WIND       PRES   REMARKS
CRAIG          FAIR      67  31  26 SW9       30.15R
HAYDEN         FAIR      69  32  25 SW5       30.19R
MEEKER         FAIR      65  38  36 CALM      30.17R
RABBIT EARS PA FAIR      55  28  35 NW5       30.51R
STEAMBOAT SPGS FAIR      67  32  26 CALM      30.20R
WALDEN         FAIR      63  25  23 CALM      30.31R
$$

COZ006>008-011-200400-
...WEST CENTRAL VALLEYS...

CITY           SKY/WX    TMP DP  RH WIND       PRES   REMARKS
GRAND JUNCTION FAIR      81  34  18 N7        30.02R
MONTROSE       FAIR      75  39  27 VRB5      30.12R
EAGLE          FAIR      71  35  26 E6        30.21R
RIFLE          FAIR      72  37  28 SE8       30.09R
DELTA          FAIR      84  34  16 SE6       30.07R
NUCLA          FAIR      77  32  19 NW7       30.16R
$$

COZ017>023-064>068-200400-
...SOUTHWEST COLORADO...

CITY           SKY/WX    TMP DP  RH WIND       PRES   REMARKS
DURANGO        FAIR      72  37  28 N7        30.17R
CORTEZ         FAIR      69  34  27 CALM      30.10R
PAGOSA SPRINGS FAIR      65  30  26 NE6       30.27R
TELLURIDE      MOCLDY    62  35  37 SE6       30.42R
WOLF CREEK PAS FAIR      52  27  37 CALM      30.67R
$$

COZ009-010-012-014-032>034-037-058>063-200400-
...CENTRAL COLORADO...

CITY           SKY/WX    TMP DP  RH WIND       PRES   REMARKS
ASPEN          FAIR      60  39  45 S10       30.29R
BUENA VISTA    FAIR      66  30  26 W9        30.29R
COPPER MTN     FAIR      54  25  32 NW8       30.63R
BERTHOUD PASS  FAIR      45  41  87 NW20      30.65S
COTTONWOOD PAS FAIR      64  27  24 W9        30.45R
GUNNISON       FAIR      64  39  39 E3        30.28R
KREMMLING      FAIR      79  23  12 N12       30.27R
LEADVILLE      FAIR      51  30  44 NE6       30.42R
MONARCH PASS   FAIR      54  27  35 NW9       30.72R
SALIDA         MOCLDY    69  37  31 W6        30.32R
SUNLIGHT       FAIR      55  28  35 CALM      30.55R
WILKERSON PASS FAIR      54  27  35 N9        30.59R
$$

COZ069>075-200400-
...SAN LUIS VALLEY/SANGRE DE CRISTO MOUNTAINS...

CITY           SKY/WX    TMP DP  RH WIND       PRES   REMARKS
ALAMOSA        FAIR      64  40  41 NW6       30.23R
DEL NORTE      FAIR      65  35  33 W9        30.29R
LA VETA PASS   NOT AVBL
SAGUACHE       FAIR      66  34  30 NW6       30.28R
$$

COZ035-036-038>040-200400-
...NORTHERN COLORADO FRONT RANGE...

CITY           SKY/WX    TMP DP  RH WIND       PRES   REMARKS
DENVER INTL AP MOCLDY    78  35  21 SE9       30.03F
DMNS CITY PARK   N/A     78  37  22 N10G18    30.06R
AURORA         MOCLDY    76  39  26 E12       30.09R
FRONT RANGE AP FAIR      79  36  21 NE10G17   30.07F
ERIE MUNI ARPT FAIR      79  36  20 SW3       30.09R
BOULDER MUN AP FAIR      79  37  22 CALM      30.05R
CENTENNIAL     FAIR      76  38  25 E10G18    30.11R
BROOMFIELD     MOCLDY    77  41  27 SW5       30.09R
FORT COLLINS   FAIR      81  47  30 W5        30.03R
LONGMONT       FAIR      81  42  24 S5        30.04R
$$

COZ041-046-047-076>085-087-088-200400-
...PIKES PEAK/PALMER DIVIDE AND SOUTHERN FOOTHILLS...

CITY           SKY/WX    TMP DP  RH WIND       PRES   REMARKS
COLO. SPRINGS  FAIR      71  44  37 NW8       30.16R
A. F. ACADEMY  MOCLDY    68  42  39 CALM      30.18R
SCHRIEVER AFB  FAIR      69  40  34 SE6       30.16R
CHEYENNE MTN   MOCLDY    72  39  30 SW6       30.17R
ELLICOTT       NOT AVBL
FALCON         FAIR      67  40  37 W8        30.22R
FORT CARSON    FAIR      73  47  40 NW9       30.12R
LIMON          FAIR      73  48  41 E5        30.08R
MONUMENT HILL  FAIR      66  41  39 SW9       30.23R
CANON CITY     CLEAR     79  46  31 N14G20    30.06R
WALSENBURG     FAIR      75  43  31 S8        30.11R
TRINIDAD       FAIR      73  43  33 SW9       30.11S
$$

COZ042>045-048>051-090-091-200400-
...NORTHEAST COLORADO...

CITY           SKY/WX    TMP DP  RH WIND       PRES   REMARKS
GREELEY ARPT   FAIR      77  54  44 CALM      30.01R
AKRON          FAIR      82  45  27 S13       29.98R
BURLINGTON     FAIR      73  54  51 S12       29.98R
WRAY           NOT AVBL
YUMA           FAIR      68  50  52 SW7       29.94R
STERLING       FAIR      73  54  49 NE6       29.93R
HOLYOKE        FAIR      73  61  64 N6        29.92R
FORT MORGAN    FAIR      75  40  27 N10       29.98R
$$

COZ086-089-092>099-200400-
...SOUTHEAST COLORADO...

CITY           SKY/WX    TMP DP  RH WIND       PRES   REMARKS
PUEBLO         FAIR      80  47  31 NE13      30.02R
LA JUNTA       FAIR      78  48  34 S9        29.99R
LAMAR          FAIR      72  51  47 S9        29.93R
SPRINGFIELD      N/A     67  57  70 SW9       30.02R
$$



USA.gov is the U.S. government's official web portal to all federal, state and local government web resources and services.